CW0728 Weather Reports


Display with metric or nautical units.
time (UTC)temp
F
wind
direction
speed
MPH
gust
MPH
rain 1hr
in
rain 24hr
in
rain mn
in
humidity
%
barometer
mb
20260507003034 50 181 0.0 0.0 0.00 0.15 0.15 94 1003.7
20260507001516 50 139 1.0 10.0 0.00 0.15 0.15 94 1003.6
20260507000055 50 192 0.0 7.0 0.00 0.15 0.15 94 1003.6
20260506234534 50 292 1.0 10.0 0.00 0.15 0.15 94 1003.7
20260506233013 51 114 1.0 7.0 0.00 0.15 0.15 94 1003.7
20260506231554 51 181 1.0 9.0 0.00 0.15 0.15 94 1003.8
20260506230029 51 210 1.0 14.0 0.02 0.15 0.15 94 1003.8
20260506224503 51 111 3.0 12.0 0.03 0.15 0.15 93 1003.8
20260506223042 51 163 4.0 11.0 0.05 0.15 0.15 93 1004.1
20260506221520 51 149 3.0 12.0 0.06 0.15 0.15 93 1004.1
20260506220055 51 237 3.0 11.0 0.06 0.13 0.13 93 1004.4
20260506214546 51 146 2.0 8.0 0.07 0.12 0.12 93 1004.4
20260506213033 51 151 3.0 11.0 0.05 0.10 0.10 93 1004.5
20260506211522 51 229 1.0 12.0 0.05 0.09 0.09 92 1004.8
20260506210003 52 216 3.0 9.0 0.03 0.07 0.07 91 1004.7
20260506204542 52 210 2.0 8.0 0.02 0.05 0.05 91 1004.7
20260506203017 52 247 2.0 11.0 0.02 0.05 0.05 90 1004.8
20260506201617 53 167 2.0 7.0 0.03 0.04 0.04 89 1004.5
20260506200031 54 169 2.0 8.0 0.04 0.04 0.04 88 1004.9
20260506194509 55 180 0.0 6.0 0.03 0.03 0.03 89 1005.0
20260506193053 56 253 2.0 10.0 0.03 0.03 0.03 88 1005.2
20260506191526 55 144 0.0 5.0 0.01 0.01 0.01 88 1005.5
20260506190001 54 184 0.0 6.0 0.00 0.00 0.00 87 1005.4
20260506184547 53 189 2.0 10.0 0.00 0.00 0.00 85 1005.2
20260506183024 53 123 3.0 12.0 0.00 0.00 0.00 84 1005.1
20260506181502 53 186 2.0 9.0 0.00 0.00 0.00 84 1005.3
20260506180041 53 223 2.0 8.0 0.00 0.00 0.00 83 1005.2
20260506174519 54 207 0.0 9.0 0.00 0.00 0.00 83 1005.4
20260506173123 54 175 2.0 10.0 0.00 0.00 0.00 83 1005.5
20260506171543 54 213 2.0 10.0 0.00 0.00 0.00 83 1005.7
20260506170016 54 111 0.0 6.0 0.00 0.00 0.00 82 1006.1
20260506164551 56 161 1.0 10.0 0.00 0.00 0.00 80 1006.3
20260506163037 57 126 0.0 9.0 0.00 0.00 0.00 79 1006.4
20260506161504 57 176 2.0 9.0 0.00 0.00 0.00 80 1006.9
20260506160038 57 136 2.0 9.0 0.00 0.00 0.00 80 1007.0
20260506154517 57 217 4.0 15.0 0.00 0.00 0.00 82 1007.3
20260506153052 56 220 1.0 6.0 0.00 0.00 0.00 83 1007.1
20260506151524 55 215 3.0 10.0 0.00 0.00 0.00 83 1007.3
20260506150012 55 219 1.0 7.0 0.00 0.00 0.00 83 1007.3
20260506144550 55 167 1.0 7.0 0.00 0.00 0.00 83 1007.0
20260506143024 56 276 1.0 8.0 0.00 0.00 0.00 83 1007.1
20260506141503 55 198 1.0 9.0 0.00 0.00 0.00 84 1007.2
20260506140050 56 230 2.0 7.0 0.00 0.00 0.00 84 1007.5
20260506134517 55 146 1.0 8.0 0.00 0.00 0.00 84 1007.4
20260506133059 55 197 0.0 0.0 0.00 0.00 0.00 84 1007.5
20260506131540 55 238 2.0 7.0 0.00 0.00 0.00 84 1007.3
20260506130027 55 193 0.0 7.0 0.00 0.00 0.00 85 1007.3
20260506124558 54 146 2.0 8.0 0.00 0.00 0.00 85 1007.4
20260506123032 55 187 0.0 2.0 0.00 0.00 0.00 85 1007.3
20260506121508 54 135 0.0 0.0 0.00 0.00 0.00 86 1007.6
20260506120054 54 150 0.0 4.0 0.00 0.00 0.00 86 1007.7
20260506114523 53 162 0.0 6.0 0.00 0.00 0.00 87 1007.9
20260506113058 52 145 0.0 2.0 0.00 0.00 0.00 88 1007.9
20260506111540 52 169 0.0 0.0 0.00 0.00 0.00 88 1007.8
20260506110021 51 167 0.0 0.0 0.00 0.00 0.00 89 1007.8
20260506104512 51 169 0.0 3.0 0.00 0.00 0.00 89 1007.9
20260506103051 50 148 1.0 5.0 0.00 0.00 0.00 89 1007.7
20260506101539 50 179 0.0 5.0 0.00 0.00 0.00 90 1007.8
20260506100018 49 136 0.0 3.0 0.00 0.00 0.00 89 1007.6
20260506094557 49 159 0.0 2.0 0.00 0.00 0.00 88 1007.8
20260506093058 49 186 0.0 1.0 0.00 0.00 0.00 88 1007.5
20260506091514 50 206 0.0 2.0 0.00 0.00 0.00 86 1007.7
20260506090054 50 196 0.0 3.0 0.00 0.00 0.00 86 1007.6
20260506084522 51 200 0.0 5.0 0.00 0.00 0.00 86 1007.5
20260506083103 51 144 0.0 3.0 0.00 0.00 0.00 85 1007.4
20260506081541 51 171 0.0 4.0 0.00 0.00 0.00 85 1007.3
20260506073036 51 146 0.0 0.0 0.00 0.00 0.00 85 1007.3
20260506071524 51 146 0.0 5.0 0.00 0.00 0.00 85 1007.0
20260506061557 51 181 0.0 5.0 0.00 0.00 0.00 82 1006.8
20260506044510 52 165 0.0 5.0 0.00 0.00 0.00 81 1007.0
20260506043050 52 165 0.0 5.0 0.00 0.00 0.00 81 1006.9
20260506041531 53 221 1.0 5.0 0.00 0.00 0.00 81 1006.8
20260506040020 53 206 0.0 5.0 0.00 0.00 0.00 81 1006.8
20260506034511 53 192 0.0 4.0 0.00 0.00 0.00 81 1006.8
20260506033055 53 194 0.0 2.0 0.00 0.00 0.00 82 1006.8
20260506031543 52 141 0.0 4.0 0.00 0.00 0.00 81 1006.7
20260506030019 53 84 0.0 4.0 0.00 0.00 0.00 80 1006.8
20260506024613 53 180 0.0 3.0 0.00 0.00 0.00 79 1006.8
20260506023051 54 158 0.0 3.0 0.00 0.00 0.00 78 1006.8
20260506021519 54 165 0.0 0.0 0.00 0.00 0.00 77 1006.8
20260506020123 56 229 0.0 2.0 0.00 0.00 0.00 75 1006.9
20260506014534 56 171 0.0 0.0 0.00 0.00 0.00 73 1007.0
20260506013008 57 145 1.0 4.0 0.00 0.00 0.00 73 1006.9
20260506011549 58 152 0.0 3.0 0.00 0.00 0.00 72 1006.8
20260506010029 59 169 0.0 5.0 0.00 0.00 0.00 69 1006.6
20260506004602 61 163 0.0 1.0 0.00 0.00 0.00 66 1006.5